Brise-du-Lac, Quebec

5:39 AM EDT on April 27, 2017 (GMT -0400)
Glend Wexford | | Change Station

Elev 300 ft 45.99 °N, 74.12 °W | Updated 29 seconds ago

Overcast
Overcast
52.7 °F
Feels Like 52.7 °F
N
0.0
Wind Variable Wind from NE
Gusts 0.0 mph

Today
High -- | Low -- °F
--% Chance of Precip.
Yesterday
High -- | Low -- °F
Precip. -- in
Pressure 29.84 in
Visibility 0.8 miles
Clouds
Dew Point 53 °F
Humidity 100%
Rainfall 0.00 in
Snow Depth Not available.
5:48 AM 7:59 PM
New Moon, 1% visible
METAR CYMX 270900Z 06008KT 3/4SM R06/4500FT/D R11/5500VP6000FT/U BR VV002 11/11 A2983 RMK FG8 SLP105
Pressure 29.84 in
Visibility 0.8 miles
Clouds
Dew Point 53 °F
Humidity 100%
Rainfall 0.00 in
Snow Depth Not available.
5:48 AM 7:59 PM
New Moon, 1% visible
METAR CYMX 270900Z 06008KT 3/4SM R06/4500FT/D R11/5500VP6000FT/U BR VV002 11/11 A2983 RMK FG8 SLP105

Get Severe Weather Alerts

Thanks for signing up!

Be on the lookout for a verification email in your inbox.

You'll start receiving the daily forecast at 8 AM.

×

10-Day Weather Forecast

Almanac

Astronomy

Apr. 27, 2017 Rise Set
Actual Time
Civil Twilight
Nautical Twilight
Astronomical Twilight
Moon
Length of Visible Light
Length of Day
Tomorrow will be .
, % of the Moon is Illuminated

Today's Extremes

Country Highs Country Lows

Community

WunderPhotos

WunderBlog® & News

Nearby

Air Quality

  Air Quality AQ Index Pollutant
Not available.

Snow Depth

Station Depth Elevation

Earthquake Activity

City Distance Mag. Time & Date
Minimum magnitude displayed is 2.5.

Coastal Water Temperatures

Place Temperature

Stations

Nearby Weather Stations

Station Location Temp. Windchill Dew Point Humidity Wind Precip. Elev Updated Type
                   

Watches & Warnings

There are currently no watches in effect.